Regional Weather Roundup
Issued by NWS

Home | Current Version | Previous Version | Text Only | Print | Product List | Glossary Off
Versions: 1 2 3 4 5 6 7 8 9 10 11 12 13 14 15 16 17 18 19 20 21 22 23 24 25 26 27 28 29 30 31 32 33 34 35 36 37 38 39 40 41 42 43 44 45 46 47 48 49 50

154
ASUS44 KMEG 220910
RWRTN
TENNESSEE HOURLY STATE WEATHER ROUNDUP
NATIONAL WEATHER SERVICE MEMPHIS TN
400 AM CDT TUE MAY 22 2018

TNZ002-004-019-021-049-052-054-088>092-221000-
WEST TENNESSEE

CITY           SKY/WX    TMP DP  RH WIND       PRES   REMARKS
MEMPHIS INTL   FAIR      74  70  87 SE5       29.99S
NWS MEMPHIS      N/A     69 N/A N/A MISG        N/A
JACKSON        FAIR      70  69  97 CALM      30.01R
DYERSBURG      FAIR      71  70  96 CALM      30.01R FOG
COVINGTON      CLOUDY    70  70 100 CALM      30.00R FOG
BOLIVAR        PTCLDY    68  68 100 CALM      30.01S
PARIS          MOCLDY    70  68  94 SE5       30.02R
HUNTINGDON     MOCLDY    70  70 100 CALM      30.01R
LEXINGTON      CLOUDY    66  66 100 CALM      30.02S FOG
SELMER         PTCLDY    68  66  94 SE3       30.01S
SAVANNAH       CLOUDY    66  66 100 CALM      30.02R
$$

TNZ008-025-027-028-033-062-065-066-221000-
NORTH MIDDLE TENNESSEE

CITY           SKY/WX    TMP DP  RH WIND       PRES   REMARKS
NASHVILLE      MOCLDY    67  62  84 CALM      30.05R
DICKSON        CLOUDY    68  64  88 CALM      30.04R
PORTLAND       PTCLDY    68  64  88 S3        30.04S
CLARKSVILLE    MOCLDY    69  64  84 CALM      30.02S
SMYRNA         FAIR      65  62  90 SE3       30.06S
MURFREESBORO   CLOUDY    68  63  83 CALM      30.04S
COOKEVILLE     CLOUDY    70  64  83 CALM      30.07R
LIVINGSTON     PTSUNNY   70  61  73 SW6       30.08R
GALLATIN       CLOUDY    66  64  94 CALM      30.07S
CROSSVILLE     CLOUDY    68  60  75 S5        30.12S
$$

TNZ061-075-076-078-094-096-097-221000-
SOUTH MIDDLE TENNESSEE

CITY           SKY/WX    TMP DP  RH WIND       PRES   REMARKS
LEWISBURG      PTSUNNY   61  61 100 CALM      30.05R
FAYETTEVILLE   CLOUDY    68  66  94 CALM      30.06R
TULLAHOMA      CLOUDY    70  64  83 CALM      30.06R
WINCHESTER     CLOUDY    68  64  88 CALM      30.06S
MCMINNVILLE    CLOUDY    66  64  94 CALM      30.07R
COLUMBIA       PTCLDY    64  64 100 CALM      30.03S
SHELBYVILLE    CLOUDY    64  63  94 CALM      30.06R
$$

TNZ017-018-042-046-047-221000-
NORTHEAST TENNESSEE

CITY           SKY/WX    TMP DP  RH WIND       PRES   REMARKS
TRI CITIES     FOG       61  61 100 CALM      30.12S VSB 1/4
ELIZABETHTON   FAIR      63  61  94 NE3       30.13S
GREENEVILLE    PTSUNNY   64  63  94 CALM      30.11S
$$

TNZ012-013-036-069-073-074-221000-
CENTRAL EAST TENNESSEE

CITY           SKY/WX    TMP DP  RH WIND       PRES   REMARKS
KNOXVILLE      CLOUDY    69  67  93 E5        30.08R
OAK RIDGE      CLOUDY    69  67  93 CALM      30.10R
DOWNTOWN KNOXV CLOUDY    68  66  94 CALM      30.09R
GATLINBURG     CLOUDY    66  66 100 CALM      30.09S
MORRISTOWN     CLOUDY    66  66 100 E3        30.10S
JACKSBORO      CLOUDY    64  63  94 CALM      30.13S
$$

TNZ083-085-099-221000-
SOUTHEAST TENNESSEE

CITY           SKY/WX    TMP DP  RH WIND       PRES   REMARKS
CHATTANOOGA    MOCLDY    72  62  71 SE3       30.08R
DAYTON         CLOUDY    70  66  88 CALM      30.07S
$$

SKY/WX REPORTED AS FAIR MEANS FEW OR NO CLOUDS BELOW
12 THOUSAND FEET.





USA.gov is the U.S. government's official web portal to all federal, state and local government web resources and services.